Regional Weather Roundup
Issued by NWS Upton, NY

Current Version | Previous Version | Text Only | Print | Product List | Glossary On
Versions: 1 2 3 4 5 6 7 8 9 10 11 12 13 14 15 16 17 18 19 20 21 22 23 24 25 26 27
000
ASUS41 KOKX 180708
RWROKX

REGIONAL WEATHER ROUNDUP
NATIONAL WEATHER SERVICE NEW YORK NY
200 AM EST WED JAN 18 2017

NOTE: "FAIR" INDICATES FEW OR NO CLOUDS BELOW 12,000 FEET WITH NO
SIGNIFICANT WEATHER AND/OR OBSTRUCTIONS TO VISIBILITY.

NYZ071-072-176-178-NJZ106-104-180800-
NEW YORK CITY METRO AREA

CITY           SKY/WX    TMP DP  RH WIND       PRES   REMARKS
Central Park   CLOUDY    38  37  97 E8        29.92F FOG     WCI  32
Wall St Helipt CLOUDY    40  38  93 NE15      29.91F WCI  32
Bronx Bot Gard NOT AVBL
LaGuardia APRT DRIZZLE   40  38  93 NE14      29.91F FOG     WCI  32
Kennedy INTL   DRIZZLE   41  38  89 N8        29.91F FOG
Breezy Point     N/A     37 N/A N/A N10G16      N/A  WCI  30
Newark/Liberty DRIZZLE   39  38  96 N10       29.91F FOG     WCI  32
Teterboro      DRIZZLE   39  37  92 N5        29.92S FOG
$$

NYZ177-179-078>081-180800-
LONG ISLAND NEW YORK

CITY           SKY/WX    TMP DP  RH WIND       PRES   REMARKS
Jones Beach      N/A     39 N/A N/A NE13        N/A  WCI  32
Matinecock PT  NOT AVBL
Farmingdale    CLOUDY    40  39  97 N8        29.91S FOG     WCI  34
MacArthur/ISP  CLOUDY    41  41 100 NE9       29.89F
Shirley        CLOUDY    42  42 100 N5        29.91F FOG
Westhampton    LGT RAIN  43  41  93 VRB6G16   29.92F FOG
Southampton    NOT AVBL
Bridgehampton  NOT AVBL
East Hampton   DRIZZLE   42  41  97 E9        29.91F
Montauk          N/A     43  42  97 E12G18    29.93F
$$

NYZ052-065-067-180800-
HUDSON VALLEY

CITY           SKY/WX    TMP DP  RH WIND       PRES   REMARKS
White Plains   CLOUDY    37  35  92 E12       29.89F WCI  29
Newburgh       LGT RAIN  34  34 100 NE6       29.93F FOG     WCI  29
Montgomery     LGT RAIN  34  32  92 N7        29.92F WCI  28
Poughkeepsie   LGT RAIN  33  32  96 E3        29.93F FOG
Albany         LGTSLEET  33  31  92 CALM      29.96S FOG
$$

NJZ001-105-106-008-010-013-015-019>022-104-180800-
NEW JERSEY

CITY           SKY/WX    TMP DP  RH WIND       PRES   REMARKS
Newark/Liberty DRIZZLE   39  38  96 N10       29.91F FOG     WCI  32
Teterboro      DRIZZLE   39  37  92 N5        29.92S FOG
Caldwell       CLOUDY    37  36  96 NE6       29.92F FOG     WCI  32
Somerville     LGT RAIN  38  36  92 N5        29.88F WCI  34
Linden         CLOUDY    39  38  94 NE9       29.91F FOG     WCI  33
Sussex         NOT AVBL
Andover          N/A     33  32  96 MISG      29.91S
Trenton        CLOUDY    40  40 100 NE5       29.89S FOG
Millville      FOG       46  46 100 N5        29.88S VSB 1
Atlantic City  FOG       46  44  93 NW5       29.89S VSB 1/2
Wrightstown    LGT RAIN  43  41  93 N3        29.85F
Toms River     LGT RAIN  44  44 100 NE3       29.88F
Belmar         LGT RAIN  42  42 100 N7        29.89S FOG
$$

PAZ047>061-062-071-180800-
EASTERN PENNSYLVANIA

CITY           SKY/WX    TMP DP  RH WIND       PRES   REMARKS
Philadelphia   CLOUDY    43  42  97 N5        29.90R FOG
Allentown      RAIN      37  35  92 NE6       29.91S FOG     WCI  32
Scranton       CLOUDY    37  36  96 SE5       29.87F WCI  33
$$

CTZ002-004>006-009-010-012-RIZ004-006-007-MAZ004-011-015-180800-
SOUTHERN NEW ENGLAND
 IN CT

CITY           SKY/WX    TMP DP  RH WIND       PRES   REMARKS
Bradley INTL   LGT RAIN  34  34 100 NE5       29.97F FOG     WCI  30
Hartford       LGT RAIN  35  34  96 N7        29.98F FOG     WCI  29
Danbury        CLOUDY    35  33  92 NE6       29.94F WCI  30
Wtrbury/Oxford CLOUDY    36  30  80 E10G18    29.92F WCI  28
Bridgeport     CLOUDY    40  36  86 NE14      29.93F WCI  32
Meriden        LGT RAIN  37  34  89 N6        29.96F FOG     WCI  32
New Haven      MIX PCPN  37  36  96 N10       29.94F WCI  30
Chester        LGT RAIN  37  37 100 NE7       29.94F WCI  32
Groton         LGT RAIN  40  38  93 E14       29.95F FOG     WCI  32
Wilimantic     LGT RAIN  39  37  92 NE5       29.98F FOG

 IN RI

CITY           SKY/WX    TMP DP  RH WIND       PRES   REMARKS
Providence     LGT RAIN  38  36  92 NE6       30.01F FOG     WCI  33
Block Island   NOT AVBL
Westerly       LGT RAIN  40  37  89 NE14      29.97F FOG     WCI  32
 IN MA

CITY           SKY/WX    TMP DP  RH WIND       PRES   REMARKS
Boston         LGT RAIN  37  37 100 E16       30.06F FOG     WCI  28
Worcester      SNOW      31  30  96 E7        29.98F VSB 1/4 WCI  24
Westfield      LGT RAIN  33  33 100 N6        29.98F WCI  28
Provincetown   LGT RAIN  38  37  97 E15       30.05F WCI  29
Nantucket      LGT RAIN  41  37  86 E15       29.99F
$$

ANZ330-335-338-340-345-350-353-355-180800-
COASTAL MARINE OBSERVATIONS


STATION/POSITION TIME  SKY/WX   TEMP    WIND        PRES    VSBY  WAVE
                                AIR SEA DIR/SP/G                  HT/PER
                 (UTC)          (F)     (DEG/KT/KT) (MB)    (MI)  (FT/S)
NY HARB ENTRANCE 0550            44 44   50/ 12/ 14 1012.0          3/ 4
20 S FIRE ISLAND 0650            47 45  100/  4/  4 1011.3          3/ 4
GREAT SOUTH BAY  NOT AVBL
23 SSW MONTAUK P 0550            46 48  110/ 19/ 21 1013.4          5/ 5
15 E BARNEGAT LI 0630               42                N/A           2/ 4
HUDSON CANYON    0550            54 53              1011.5          2/ 4
KINGS POINT      0636            38 38              1012.8
EXECUTION ROCKS  0645            38      50/ 16/ 19   N/A
CENTRAL LI SOUND 0615            41      70/ 16/ 17   N/A           2/ 4
EASTERN LI SOUND NOT AVBL
ROBBINS REEF     0648            39      50/ 11/ 14 1012.5
$$


>>>>>>>>>>>>>>>>>>>>>>>>>>>> KEY <<<<<<<<<<<<<<<<<<<<<<<<<<<
>                                                          <
>     SKY/WX - Sky Condition/Present Weather               <
>     TMP    - Temperature in Fahrenheit                   <
>     DP     - Dew Point in Fahrenheit                     <
>     RH     - Relative Humidity in Percent                <
>     WIND   - Direction (from) and Speed in MPH           <
>     PRES   - Mean Sea Level Pressure (inches of Hg)      <
>     WCI    - Wind Chill Index                            <
>     VSB    - VISIBILITY IN MILES                         <
>     HX     - HEAT INDEX                                  <
>     TC     - TEMPERATURE IN CELSIUS                      <
>     VRB    - VARIABLE WIND DIRECTION                     <
>                                                          <
>>>>>>>>>>>>>>>>>>>>>>>>>>>> KEY <<<<<<<<<<<<<<<<<<<<<<<<<<<




USA.gov is the U.S. government's official web portal to all federal, state and local government web resources and services.